Regional Weather Roundup
Issued by NWS

Home | Current Version | Previous Version | Graphics & Text | Print | Product List | Glossary On
Versions: 1 2 3 4 5 6 7 8 9 10 11 12 13 14 15 16 17 18 19 20 21 22 23 24 25 26 27 28 29 30 31 32 33 34 35 36 37 38 39 40 41 42 43 44 45 46 47 48 49 50
000
ASUS43 KBIS 262310
RWRND

NORTH DAKOTA REGIONAL WEATHER ROUNDUP
NATIONAL WEATHER SERVICE BISMARCK ND
600 PM CDT THU MAR 26 2015

NOTE: "FAIR" INDICATES FEW OR NO CLOUDS BELOW 12,000 FEET WITH NO
SIGNIFICANT WEATHER AND/OR OBSTRUCTIONS TO VISIBILITY.


NDZ001>003-009>011-017-270000-
NORTHWEST NORTH DAKOTA

CITY           SKY/WX    TMP DP  RH WIND       PRES   REMARKS
WILLISTON      PTSUNNY   45  25  45 CALM      30.16S
MINOT          SUNNY     38  19  46 CALM      30.21F
MINOT AFB      SUNNY     38  22  53 SE3       30.21S
$$

NDZ018>021-031>035-040>046-270000-
SOUTHWEST NORTH DAKOTA

CITY           SKY/WX    TMP DP  RH WIND       PRES   REMARKS
BISMARCK       CLOUDY    38  20  48 NE5       30.23R
DICKINSON      CLOUDY    37  29  72 SE6       30.15S
GARRISON         N/A     38  21  50 SW3       30.20F
HETTINGER ARPT PTSUNNY   38  29  70 SE8       30.16S
$$

NDZ004>008-012>016-024-026-027-054-270000-
NORTHEAST NORTH DAKOTA

CITY           SKY/WX    TMP DP  RH WIND       PRES   REMARKS
GRAND FORKS    PTSUNNY   30  15  53 N18G25    30.28S WCI  18
GRND FRKS AFB  PTSUNNY   30  14  52 N14G21    30.28R WCI  19
DEVILS LAKE    CLOUDY    30  18  59 NE13      30.26R
$$

NDZ022-023-025-028>030-036>039-047>053-270000-
SOUTHEAST NORTH DAKOTA

CITY           SKY/WX    TMP DP  RH WIND       PRES   REMARKS
FARGO          SUNNY     34  10  37 N18G29    30.25R
JAMESTOWN      SUNNY     34  12  40 NE13G21   30.23R
$$




USA.gov is the U.S. government's official web portal to all federal, state and local government web resources and services.